Tracking 20232 objects as of 21-Jan-2020
HD Live streaming from Space Station
objects crossing your sky now

SL-8 DEB

Track SL-8 DEB now!
10-day predictions


NORAD ID: 21179
Int'l Code: 1991-009AS
Perigee: 1,518.8 km
Apogee: 1,713.9 km
Inclination: 74.0 °
Period: 118.4 minutes
Semi major axis: 7987 km
RCS: 0.1608 m2 (medium)
Launch date: February 12, 1991
Source: Commonwealth of Independent States (former USSR) (CIS)
Launch site: PLESETSK MISSILE AND SPACE COMPLEX (PKMTR)

Note: This is SATELLITE DEBRIS
aabbcc
Your satellite tracking list
Your tracking list is empty




NASA's NSSDC Master Catalog

Two Line Element Set (TLE):
1 21179U 91009AS  20021.22040943 -.00000139 +00000-0 -12343-2 0  9998
2 21179 073.9919 299.6184 0122153 181.4853 332.1557 12.16179188284850
Source of the keplerian elements: AFSPC